Погода в Марьинке

Украина / Донецкая область     47°56′29″N   37°30′14″E
темп.,
°C
ветер,
м/с
пор.,
м/с
влажн.,
%
обл.,
%
осадки,
мм/ч
давл.,
гПа
погр.,
м
26 февраля, пт
пт2623:000зюз51195100 0.0 1027287
02:00+1з51098100 0.1 1025270
05:00+2з41099100 0.0 1024208
08:00+2з4999100 0.0 1024255
11:00+2з4898100 0.0 1024221
14:00+4з5998100 0.0 1022312
17:00+3зюз5109784 0.0 1020329
20:00+3зюз6119892 0.0 1020434
27 февраля, сб
сб2723:00+3з5998100 0.0 1017353
02:00+3з41098100 0.0 1017289
05:00+3з4898100 0.0 1015213
08:00+3з3899100 0.0 1014255
11:00+3з41098100 1.6 1013393
14:00+3сз41097100 2.9 1012400
17:00+2з3993100 0.1 1012337
20:00+2зсз41092100 0.1 1013356
28 февраля, вс
вс2823:000зсз389584 0.0 1013268
02:00+1сз489592 0.1 1014450
05:000сз389796 0.1 1014302
08:00+1сз478898 0.2 1016547
11:00+3ссз577193 0.3 1017989
14:00+3ссз576796 0.3 10181081
17:00+1ссз4777100 0.0 1019702
20:000с479297 0.3 1021492
1 марта, пн
пн123:00−1ссз369168 0.0 1022337
02:00−2сз359273 0.0 1023285
05:00−2с238862 0.0 1024230
08:00−1ссв137463 0.0 1025376
11:00+1с227074 0.0 1026632
14:00+2ссв226984 0.3 1026703
17:000ссв246684 0.1 1027363
20:00−1ссв256944 0.1 1030206
2 марта, вт
вт223:00−2ссв23710 0.0 1030134
02:00−2ссз22720 0.0 1031101
05:00−3зсз227433 0.0 1031123
08:00−1зсз356667 0.0 1030506
11:00+2з465652 0.0 1029854
14:00+3з585764 0.0 1027948
17:00+2з51071100 0.0 1025758
20:00+1з61380100 0.0 1024617